Location: Bishausen
(51.6334°N, 9.9631°E)
Time: 17:12:22
(UTC+00:00)

SL-08 R/B - Pass Details

Date: 23 May 2024
Orbit: 945 x 993 km, 83.0° (Epoch: 23 June)

Event Time Altitude Azimuth Distance (km) Brightness Sun altitude
Exits shadow 00:44:06 22° 192° (SSW) 1,981 5.5 -15.2°
Maximum altitude 00:48:20 84° 279° (W) 975 4.5 -15.0°
Drops below altitude 10° 00:54:31 10° 9° (N) 2,696 8.1 -14.6°
Sets 00:57:01 0° 10° (N) 3,640 9.1 -14.5°
